Regional Weather Roundup
Issued by NWS

Home | Current Version | Previous Version | Text Only | Print | Product List | Glossary Off
Versions: 1 2 3 4 5 6 7 8 9 10 11 12 13 14 15 16 17 18 19 20 21 22 23 24 25 26 27 28 29 30 31 32 33 34 35 36 37 38 39 40 41 42 43 44 45 46 47 48 49 50

000
ASUS43 KMKX 242100
RWRWI

WISCONSIN REGIONAL WEATHER ROUNDUP
NATIONAL WEATHER SERVICE MILWAUKEE/SULLIVAN WI
300 PM CST TUE JAN 24 2017

NOTE: "FAIR" INDICATES FEW OR NO CLOUDS BELOW 12,000 FEET WITH NO
SIGNIFICANT WEATHER AND/OR OBSTRUCTIONS TO VISIBILITY.

WIZ001-002-006>008-014>016-023>028-242200-
NORTHWEST WISCONSIN

CITY           SKY/WX    TMP DP  RH WIND       PRES   REMARKS
SUPERIOR ARPT  CLOUDY    33  26  73 CALM      29.84R
ASHLAND        CLOUDY    34  26  72 W5        29.84R WCI  30
HAYWARD        CLOUDY    33  27  78 CALM      29.82R
SIREN          CLOUDY    32  27  80 CALM      29.83F
CUMBERLAND     CLOUDY    32  27  80 NE6       29.81S WCI  26
RICE LAKE      CLOUDY    33  28  82 CALM      29.83S
CHETEK         CLOUDY    33  29  83 CALM      29.82S
LADYSMITH      CLOUDY    34  31  90 CALM      29.83S
EAU CLAIRE     NOT AVBL
MENOMONIE        N/A    N/A N/A N/A MISG        N/A
NEW RICHMOND   CLOUDY    32  28  84 CALM      29.82S
OSCEOLA        CLOUDY    33  28  81 NE6       29.84F WCI  27
$$

WIZ003>005-009-010-017-018-242200-
NORTH CENTRAL WISCONSIN

CITY           SKY/WX    TMP DP  RH WIND       PRES   REMARKS
MANITOWISH WTR CLOUDY    33  33  99 CALM      29.78R
ARBOR VITAE    CLOUDY    37  32  85 CALM      29.79R
WOODRUFF       CLOUDY    37  32  85 CALM      29.79R
RHINELANDER    CLOUDY    37  31  78 W5        29.80R WCI  33
EAGLE RIVER    CLOUDY    34  32  92 NE3       29.78R
LAND O LAKES   CLOUDY    34  32  92 NE6       29.78S WCI  29
PHILLIPS       CLOUDY    33  30  90 CALM      29.80R
TOMAHAWK       CLOUDY    34  29  82 CALM      29.80R
MEDFORD        CLOUDY    32  28  85 CALM      29.79F
MERRILL        CLOUDY    36  30  80 CALM        N/A
$$

WIZ029-030-035-036-043>047-242200-
CENTRAL WISCONSIN

CITY           SKY/WX    TMP DP  RH WIND       PRES   REMARKS
WAUSAU         CLOUDY    35  29  78 CALM      29.78S
MOSINEE        CLOUDY    36  30  80 CALM      29.80S
MARSHFIELD     CLOUDY    34  28  79 CALM      29.79S
STEVENS POINT  CLOUDY    34  29  82 S3        29.81S
WAUPACA        CLOUDY    38  32  78 CALM      29.81F
WAUTOMA        CLOUDY    37  31  78 W3        29.83S
WISC RAPIDS    CLOUDY    36  30  79 NE3       29.82S
CAMP DOUGLAS   NOT AVBL
$$

WIZ011>013-019>022-031-037>040-048>050-242200-
NORTHEAST WISCONSIN

CITY           SKY/WX    TMP DP  RH WIND       PRES   REMARKS
ANTIGO         CLOUDY    34  31  88 CALM      29.79F
SHAWANO        CLOUDY    41  33  74 W5        29.81R
OCONTO         CLOUDY    38  34  84 CALM      29.81R
STURGEON BAY   CLOUDY    36  36 100 NW6       29.82R WCI  31
GREEN BAY      CLOUDY    42  35  76 W7        29.81S
MANITOWOC      NOT AVBL
APPLETON       CLOUDY    36  34  93 N5        29.80S WCI  32
CLINTONVILLE   CLOUDY    37  32  81 CALM      29.81F
OSHKOSH        CLOUDY    37  31  78 W3        29.81S
$$

WIZ032>034-041-042-053>061-242200-
SOUTHWEST WISCONSIN

CITY           SKY/WX    TMP DP  RH WIND       PRES   REMARKS
LA CROSSE      CLOUDY    38  30  73 E5        29.81S WCI  34
SPARTA         CLOUDY    35  32  89 E5        29.81F WCI  31
VIROQUA        CLOUDY    34  32  93 SE5       29.78F WCI  30
BOSCOBEL       CLOUDY    38  31  76 CALM      29.82S
PRAIRIE DU CHI CLOUDY    35  31  84 SE3       29.81S
PLATTEVILLE    CLOUDY    35  34  96 SE7       29.81S WCI  29
$$

WIZ056-057-062-063-064-067-068-242200-
SOUTH CENTRAL WISCONSIN

CITY           SKY/WX    TMP DP  RH WIND       PRES   REMARKS
REEDSBURG      CLOUDY    36  31  83 CALM      29.80S
BARABOO/DELLS  CLOUDY    36  30  81 CALM      29.80S
LONE ROCK      NOT AVBL
MINERAL POINT  CLOUDY    36  34  93 SE6       29.79F WCI  31
MADISON        CLOUDY    37  31  78 CALM      29.82S
MIDDLETON      CLOUDY    37  32  81 SE3       29.82S
WATERTOWN      CLOUDY    36  33  90 CALM      29.81F
MONROE         CLOUDY    34  32  93 E3        29.80F
JANESVILLE     CLOUDY    36  34  93 S7        29.83S WCI  30
$$

WIZ051-052-058>065-066-070>072-242200-
SOUTHEAST WISCONSIN

CITY           SKY/WX    TMP DP  RH WIND       PRES   REMARKS
MILWAUKEE      CLOUDY    39  32  76 NW3       29.83S
WAUKESHA       CLOUDY    36  30  80 W7        29.83S WCI  30
MILWAUKEE/TIMM CLOUDY    37  30  75 W5        29.83S WCI  34
RACINE         CLOUDY    37  32  82 W3        29.84S
KENOSHA        CLOUDY    37  32  82 W7        29.83S WCI  32
FOND DU LAC    CLOUDY    38  31  76 N3        29.81F
SHEBOYGAN      CLOUDY    38  33  82 NW5       29.81S WCI  34
WEST BEND      CLOUDY    36  34  93 W3        29.81F
JUNEAU         CLOUDY    35  32  88 N3        29.82F
$$

LSZ147-162-242200-
LAKE SUPERIOR

STATION/POSITION TIME  TEMP    WIND        PRES    WAVE
                       AIR SEA DIR/SP/G            HT/PER
                 (UTC) (F)     (DEG/KT/KT) (MB)    (FT/S)
DEVILS ISLAND    2000   34     270/  9/ 10 1010.6F
PORT WING        2030   34     260/  4/  5 1010.5S
SAXON HARBOR     2030   33     310/  9/ 10 1009.8S
$$

LMZ867-665-643>646-242200-
LAKE MICHIGAN

STATION/POSITION TIME  TEMP    WIND        PRES    WAVE
                       AIR SEA DIR/SP/G            HT/PER
                 (UTC) (F)     (DEG/KT/KT) (MB)    (FT/S)
CHAMBERS ISLAND  2040   38        CALM     1008.8
NORTHPORT PIER   2040   36     310/  7/  9 1008.8S
SISTER BAY       2005   40        CALM       N/A
KEWAUNEE LAKESHO 2030   39     310/  4/  7 1008.9R
SHEBOYGAN LAKESH 2000   38     310/  6/  7 1009.9R
PORT WASHINGTON  2030   39     320/  1/  6 1010.8S
KENOSHA   LAKESH 2000   37     260/  2/  4 1010.5
$$

TC  - TEMPERATURE IN CELSIUS
VSB - VISIBILITY IN STATUTE MILES
WCI - WIND CHILL INDEX
HX  - HEAT INDEX





USA.gov is the U.S. government's official web portal to all federal, state and local government web resources and services.